Year,Month,Day,Hour,Minute,Value (Times are PST for temperature in C)
2015,07,20,00,00,21.80
2015,07,20,00,01,21.80
2015,07,20,00,02,21.80
2015,07,20,00,03,21.80
2015,07,20,00,04,21.80
2015,07,20,00,05,21.80
2015,07,20,00,06,21.70
2015,07,20,00,07,21.70
2015,07,20,00,08,21.70
2015,07,20,00,09,21.70
2015,07,20,00,10,21.70
2015,07,20,00,11,21.60
2015,07,20,00,12,21.60
2015,07,20,00,13,21.60
2015,07,20,00,14,21.60
2015,07,20,00,15,21.60
2015,07,20,00,16,21.60
2015,07,20,00,17,21.50
2015,07,20,00,18,21.50
2015,07,20,00,19,21.50
2015,07,20,00,20,21.50
2015,07,20,00,21,21.50
2015,07,20,00,22,21.50
2015,07,20,00,23,21.40
2015,07,20,00,24,21.40
2015,07,20,00,25,21.40
2015,07,20,00,26,21.40
2015,07,20,00,27,21.40
2015,07,20,00,28,21.30
2015,07,20,00,29,21.30
2015,07,20,00,30,21.30
2015,07,20,00,31,21.30
2015,07,20,00,32,21.30
2015,07,20,00,33,21.30
2015,07,20,00,34,21.30
2015,07,20,00,35,21.30
2015,07,20,00,36,21.30
2015,07,20,00,37,21.20
2015,07,20,00,38,21.20
2015,07,20,00,39,21.20
2015,07,20,00,40,21.20
2015,07,20,00,41,21.20
2015,07,20,00,42,21.20
2015,07,20,00,43,21.10
2015,07,20,00,44,21.10
2015,07,20,00,45,21.10
2015,07,20,00,46,21.10
2015,07,20,00,47,21.10
2015,07,20,00,48,21.00
2015,07,20,00,49,21.00
2015,07,20,00,50,21.00
2015,07,20,00,51,20.90
2015,07,20,00,52,20.90
2015,07,20,00,53,20.90
2015,07,20,00,54,20.90
2015,07,20,00,55,20.90
2015,07,20,00,56,20.90
2015,07,20,00,57,20.80
2015,07,20,00,58,20.80
2015,07,20,00,59,20.80
2015,07,20,01,00,20.80
2015,07,20,01,01,20.80
2015,07,20,01,02,20.80
2015,07,20,01,03,20.80
2015,07,20,01,04,20.80
2015,07,20,01,05,20.70
2015,07,20,01,06,20.70
2015,07,20,01,07,20.70
2015,07,20,01,08,20.70
2015,07,20,01,09,20.70
2015,07,20,01,10,20.70
2015,07,20,01,11,20.60
2015,07,20,01,12,20.60
2015,07,20,01,13,20.60
2015,07,20,01,14,20.60
2015,07,20,01,15,20.60
2015,07,20,01,16,20.60
2015,07,20,01,17,20.60
2015,07,20,01,18,20.50
2015,07,20,01,19,20.50
2015,07,20,01,20,20.50
2015,07,20,01,21,20.50
2015,07,20,01,22,20.50
2015,07,20,01,23,20.50
2015,07,20,01,24,20.50
2015,07,20,01,25,20.40
2015,07,20,01,26,20.40
2015,07,20,01,27,20.40
2015,07,20,01,28,20.40
2015,07,20,01,29,20.40
2015,07,20,01,30,20.40
2015,07,20,01,31,20.40
2015,07,20,01,32,20.40
2015,07,20,01,33,20.30
2015,07,20,01,34,20.30
2015,07,20,01,35,20.30
2015,07,20,01,36,20.30
2015,07,20,01,37,20.30
2015,07,20,01,38,20.30
2015,07,20,01,39,20.30
2015,07,20,01,40,20.30
2015,07,20,01,41,20.20
2015,07,20,01,42,20.20
2015,07,20,01,43,20.20
2015,07,20,01,44,20.20
2015,07,20,01,45,20.20
2015,07,20,01,46,20.20
2015,07,20,01,47,20.20
2015,07,20,01,48,20.20
2015,07,20,01,49,20.20
2015,07,20,01,50,20.10
2015,07,20,01,51,20.10
2015,07,20,01,52,20.10
2015,07,20,01,53,20.10
2015,07,20,01,54,20.10
2015,07,20,01,55,20.10
2015,07,20,01,56,20.10
2015,07,20,01,57,20.10
2015,07,20,01,58,20.00
2015,07,20,01,59,20.00
2015,07,20,02,00,20.00
2015,07,20,02,01,20.00
2015,07,20,02,02,20.00
2015,07,20,02,03,20.00
2015,07,20,02,04,20.00
2015,07,20,02,05,20.00
2015,07,20,02,06,20.00
2015,07,20,02,07,20.00
2015,07,20,02,08,19.90
2015,07,20,02,09,19.90
2015,07,20,02,10,19.90
2015,07,20,02,11,19.90
2015,07,20,02,12,19.90
2015,07,20,02,13,19.90
2015,07,20,02,14,19.90
2015,07,20,02,15,19.90
2015,07,20,02,16,19.90
2015,07,20,02,17,19.90
2015,07,20,02,18,19.90
2015,07,20,02,19,19.80
2015,07,20,02,20,19.80
2015,07,20,02,21,19.80
2015,07,20,02,22,19.80
2015,07,20,02,23,19.80
2015,07,20,02,24,19.70
2015,07,20,02,25,19.70
2015,07,20,02,26,19.70
2015,07,20,02,27,19.70
2015,07,20,02,28,19.70
2015,07,20,02,29,19.70
2015,07,20,02,30,19.60
2015,07,20,02,31,19.60
2015,07,20,02,32,19.60
2015,07,20,02,33,19.60
2015,07,20,02,34,19.60
2015,07,20,02,35,19.50
2015,07,20,02,36,19.50
2015,07,20,02,37,19.50
2015,07,20,02,38,19.50
2015,07,20,02,39,19.40
2015,07,20,02,40,19.40
2015,07,20,02,41,19.40
2015,07,20,02,42,19.40
2015,07,20,02,43,19.40
2015,07,20,02,44,19.40
2015,07,20,02,45,19.30
2015,07,20,02,46,19.30
2015,07,20,02,47,19.30
2015,07,20,02,48,19.30
2015,07,20,02,49,19.30
2015,07,20,02,50,19.30
2015,07,20,02,51,19.30
2015,07,20,02,52,19.20
2015,07,20,02,53,19.20
2015,07,20,02,54,19.20
2015,07,20,02,55,19.20
2015,07,20,02,56,19.20
2015,07,20,02,57,19.20
2015,07,20,02,58,19.10
2015,07,20,02,59,19.10
2015,07,20,03,00,19.10
2015,07,20,03,01,19.10
2015,07,20,03,02,19.10
2015,07,20,03,03,19.10
2015,07,20,03,04,19.10
2015,07,20,03,05,19.10
2015,07,20,03,06,19.10
2015,07,20,03,07,19.00
2015,07,20,03,08,19.00
2015,07,20,03,09,19.00
2015,07,20,03,10,19.00
2015,07,20,03,11,19.00
2015,07,20,03,12,19.00
2015,07,20,03,13,19.00
2015,07,20,03,14,19.00
2015,07,20,03,15,18.90
2015,07,20,03,16,18.90
2015,07,20,03,17,18.90
2015,07,20,03,18,18.90
2015,07,20,03,19,18.90
2015,07,20,03,20,18.90
2015,07,20,03,21,18.90
2015,07,20,03,22,18.90
2015,07,20,03,23,18.90
2015,07,20,03,24,18.90
2015,07,20,03,25,18.90
2015,07,20,03,26,18.90
2015,07,20,03,27,18.90
2015,07,20,03,28,18.80
2015,07,20,03,29,18.80
2015,07,20,03,30,18.80
2015,07,20,03,31,18.80
2015,07,20,03,32,18.80
2015,07,20,03,33,18.80
2015,07,20,03,34,18.80
2015,07,20,03,35,18.80
2015,07,20,03,36,18.80
2015,07,20,03,37,18.80
2015,07,20,03,38,18.80
2015,07,20,03,39,18.70
2015,07,20,03,40,18.70
2015,07,20,03,41,18.70
2015,07,20,03,42,18.70
2015,07,20,03,43,18.70
2015,07,20,03,44,18.70
2015,07,20,03,45,18.70
2015,07,20,03,46,18.70
2015,07,20,03,47,18.70
2015,07,20,03,48,18.70
2015,07,20,03,49,18.70
2015,07,20,03,50,18.70
2015,07,20,03,51,18.70
2015,07,20,03,52,18.70
2015,07,20,03,53,18.70
2015,07,20,03,54,18.60
2015,07,20,03,55,18.60
2015,07,20,03,56,18.60
2015,07,20,03,57,18.60
2015,07,20,03,58,18.60
2015,07,20,03,59,18.60
2015,07,20,04,00,18.60
2015,07,20,04,01,18.60
2015,07,20,04,02,18.60
2015,07,20,04,03,18.60
2015,07,20,04,04,18.50
2015,07,20,04,05,18.50
2015,07,20,04,06,18.50
2015,07,20,04,07,18.50
2015,07,20,04,08,18.40
2015,07,20,04,09,18.40
2015,07,20,04,10,18.40
2015,07,20,04,11,18.40
2015,07,20,04,12,18.40
2015,07,20,04,13,18.40
2015,07,20,04,14,18.40
2015,07,20,04,15,18.40
2015,07,20,04,16,18.40
2015,07,20,04,17,18.40
2015,07,20,04,18,18.40
2015,07,20,04,19,18.40
2015,07,20,04,20,18.30
2015,07,20,04,21,18.30
2015,07,20,04,22,18.30
2015,07,20,04,23,18.30
2015,07,20,04,24,18.30
2015,07,20,04,25,18.30
2015,07,20,04,26,18.30
2015,07,20,04,27,18.30
2015,07,20,04,28,18.30
2015,07,20,04,29,18.30
2015,07,20,04,30,18.30
2015,07,20,04,31,18.20
2015,07,20,04,32,18.20
2015,07,20,04,33,18.20
2015,07,20,04,34,18.20
2015,07,20,04,35,18.20
2015,07,20,04,36,18.20
2015,07,20,04,37,18.20
2015,07,20,04,38,18.20
2015,07,20,04,39,18.10
2015,07,20,04,40,18.10
2015,07,20,04,41,18.10
2015,07,20,04,42,18.10
2015,07,20,04,43,18.10
2015,07,20,04,44,18.10
2015,07,20,04,45,18.10
2015,07,20,04,46,18.10
2015,07,20,04,47,18.00
2015,07,20,04,48,18.00
2015,07,20,04,49,18.00
2015,07,20,04,50,18.00
2015,07,20,04,51,17.90
2015,07,20,04,52,17.90
2015,07,20,04,53,17.90
2015,07,20,04,54,17.90
2015,07,20,04,55,17.90
2015,07,20,04,56,18.00
2015,07,20,04,57,18.00
2015,07,20,04,58,18.00
2015,07,20,04,59,18.00
2015,07,20,05,00,18.00
2015,07,20,05,01,18.00
2015,07,20,05,02,17.90
2015,07,20,05,03,17.90
2015,07,20,05,04,17.90
2015,07,20,05,05,17.90
2015,07,20,05,06,17.90
2015,07,20,05,07,17.90
2015,07,20,05,08,17.90
2015,07,20,05,09,17.90
2015,07,20,05,10,17.80
2015,07,20,05,11,17.80
2015,07,20,05,12,17.80
2015,07,20,05,13,17.80
2015,07,20,05,14,17.80
2015,07,20,05,15,17.80
2015,07,20,05,16,17.80
2015,07,20,05,17,17.80
2015,07,20,05,18,17.80
2015,07,20,05,19,17.70
2015,07,20,05,20,17.70
2015,07,20,05,21,17.70
2015,07,20,05,22,17.70
2015,07,20,05,23,17.70
2015,07,20,05,24,17.70
2015,07,20,05,25,17.70
2015,07,20,05,26,17.70
2015,07,20,05,27,17.60
2015,07,20,05,28,17.60
2015,07,20,05,29,17.60
2015,07,20,05,30,17.60
2015,07,20,05,31,17.60
2015,07,20,05,32,17.60
2015,07,20,05,33,17.60
2015,07,20,05,34,17.60
2015,07,20,05,35,17.60
2015,07,20,05,36,17.60
2015,07,20,05,37,17.60
2015,07,20,05,38,17.50
2015,07,20,05,39,17.50
2015,07,20,05,40,17.50
2015,07,20,05,41,17.50
2015,07,20,05,42,17.40
2015,07,20,05,43,17.40
2015,07,20,05,44,17.40
2015,07,20,05,45,17.40
2015,07,20,05,46,17.40
2015,07,20,05,47,17.40
2015,07,20,05,48,17.40
2015,07,20,05,49,17.40
2015,07,20,05,50,17.40
2015,07,20,05,51,17.30
2015,07,20,05,52,17.30
2015,07,20,05,53,17.30
2015,07,20,05,54,17.30
2015,07,20,05,55,17.30
2015,07,20,05,56,17.30
2015,07,20,05,57,17.30
2015,07,20,05,58,17.30
2015,07,20,05,59,17.30
2015,07,20,06,00,17.20
2015,07,20,06,01,17.20
2015,07,20,06,02,17.20
2015,07,20,06,03,17.20
2015,07,20,06,04,17.20
2015,07,20,06,05,17.20
2015,07,20,06,06,17.20
2015,07,20,06,07,17.20
2015,07,20,06,08,17.20
2015,07,20,06,09,17.20
2015,07,20,06,10,17.20
2015,07,20,06,11,17.20
2015,07,20,06,12,17.20
2015,07,20,06,13,17.20
2015,07,20,06,14,17.10
2015,07,20,06,15,17.20
2015,07,20,06,16,17.20
2015,07,20,06,17,17.20
2015,07,20,06,18,17.20
2015,07,20,06,19,17.20
2015,07,20,06,20,17.20
2015,07,20,06,21,17.20
2015,07,20,06,22,17.20
2015,07,20,06,23,17.20
2015,07,20,06,24,17.20
2015,07,20,06,25,17.20
2015,07,20,06,26,17.20
2015,07,20,06,27,17.20
2015,07,20,06,28,17.10
2015,07,20,06,29,17.10
2015,07,20,06,30,17.10
2015,07,20,06,31,17.10
2015,07,20,06,32,17.10
2015,07,20,06,33,17.10
2015,07,20,06,34,17.10
2015,07,20,06,35,17.10
2015,07,20,06,36,17.10
2015,07,20,06,37,17.10
2015,07,20,06,38,17.00
2015,07,20,06,39,17.00
2015,07,20,06,40,17.00
2015,07,20,06,41,17.00
2015,07,20,06,42,17.00
2015,07,20,06,43,17.00
2015,07,20,06,44,17.00
2015,07,20,06,45,17.00
2015,07,20,06,46,16.90
2015,07,20,06,47,17.00
2015,07,20,06,48,16.90
2015,07,20,06,49,17.00
2015,07,20,06,50,17.00
2015,07,20,06,51,16.90
2015,07,20,06,52,17.00
2015,07,20,06,53,17.00
2015,07,20,06,54,16.90
2015,07,20,06,55,16.90
2015,07,20,06,56,16.90
2015,07,20,06,57,16.90
2015,07,20,06,58,16.90
2015,07,20,06,59,16.90
2015,07,20,07,00,16.90
2015,07,20,07,01,16.90
2015,07,20,07,02,16.90
2015,07,20,07,03,16.90
2015,07,20,07,04,16.90
2015,07,20,07,05,16.90
2015,07,20,07,06,16.90
2015,07,20,07,07,16.90
2015,07,20,07,08,16.90
2015,07,20,07,09,16.90
2015,07,20,07,10,16.90
2015,07,20,07,11,16.90
2015,07,20,07,12,16.90
2015,07,20,07,13,16.90
2015,07,20,07,14,17.00
2015,07,20,07,15,17.00
2015,07,20,07,16,17.00
2015,07,20,07,17,17.00
2015,07,20,07,18,17.00
2015,07,20,07,19,17.00
2015,07,20,07,20,17.00
2015,07,20,07,21,17.10
2015,07,20,07,22,17.10
2015,07,20,07,23,17.10
2015,07,20,07,24,17.10
2015,07,20,07,25,17.10
2015,07,20,07,26,17.10
2015,07,20,07,27,17.10
2015,07,20,07,28,17.10
2015,07,20,07,29,17.10
2015,07,20,07,30,17.10
2015,07,20,07,31,17.10
2015,07,20,07,32,17.10
2015,07,20,07,33,17.10
2015,07,20,07,34,17.10
2015,07,20,07,35,17.10
2015,07,20,07,36,17.10
2015,07,20,07,37,17.10
2015,07,20,07,38,17.10
2015,07,20,07,39,17.10
2015,07,20,07,40,17.10
2015,07,20,07,41,17.10
2015,07,20,07,42,17.10
2015,07,20,07,43,17.10
2015,07,20,07,44,17.10
2015,07,20,07,45,17.10
2015,07,20,07,46,17.10
2015,07,20,07,47,17.20
2015,07,20,07,48,17.20
2015,07,20,07,49,17.20
2015,07,20,07,50,17.20
2015,07,20,07,51,17.20
2015,07,20,07,52,17.20
2015,07,20,07,53,17.20
2015,07,20,07,54,17.20
2015,07,20,07,55,17.20
2015,07,20,07,56,17.30
2015,07,20,07,57,17.30
2015,07,20,07,58,17.30
2015,07,20,07,59,17.30
2015,07,20,08,00,17.30
2015,07,20,08,01,17.30
2015,07,20,08,02,17.30
2015,07,20,08,03,17.30
2015,07,20,08,04,17.40
2015,07,20,08,05,17.40
2015,07,20,08,06,17.40
2015,07,20,08,07,17.40
2015,07,20,08,08,17.40
2015,07,20,08,09,17.40
2015,07,20,08,10,17.40
2015,07,20,08,11,17.40
2015,07,20,08,12,17.40
2015,07,20,08,13,17.40
2015,07,20,08,14,17.40
2015,07,20,08,15,17.50
2015,07,20,08,16,17.50
2015,07,20,08,17,17.50
2015,07,20,08,18,17.50
2015,07,20,08,19,17.60
2015,07,20,08,20,17.60
2015,07,20,08,21,17.60
2015,07,20,08,22,17.60
2015,07,20,08,23,17.60
2015,07,20,08,24,17.60
2015,07,20,08,25,17.70
2015,07,20,08,26,17.70
2015,07,20,08,27,17.70
2015,07,20,08,28,17.70
2015,07,20,08,29,17.70
2015,07,20,08,30,17.70
2015,07,20,08,31,17.70
2015,07,20,08,32,17.70
2015,07,20,08,33,17.70
2015,07,20,08,34,17.80
2015,07,20,08,35,17.80
2015,07,20,08,36,17.80
2015,07,20,08,37,17.80
2015,07,20,08,38,17.80
2015,07,20,08,39,17.80
2015,07,20,08,40,17.80
2015,07,20,08,41,17.80
2015,07,20,08,42,17.80
2015,07,20,08,43,17.80
2015,07,20,08,44,17.90
2015,07,20,08,45,17.90
2015,07,20,08,46,17.90
2015,07,20,08,47,17.90
2015,07,20,08,48,17.90
2015,07,20,08,49,18.00
2015,07,20,08,50,18.00
2015,07,20,08,51,18.00
2015,07,20,08,52,18.10
2015,07,20,08,53,18.10
2015,07,20,08,54,18.10
2015,07,20,08,55,18.10
2015,07,20,08,56,18.20
2015,07,20,08,57,18.20
2015,07,20,08,58,18.20
2015,07,20,08,59,18.30
2015,07,20,09,00,18.30
2015,07,20,09,01,18.30
2015,07,20,09,02,18.30
2015,07,20,09,03,18.40
2015,07,20,09,04,18.40
2015,07,20,09,05,18.40
2015,07,20,09,06,18.50
2015,07,20,09,07,18.50
2015,07,20,09,08,18.60
2015,07,20,09,09,18.60
2015,07,20,09,10,18.60
2015,07,20,09,11,18.60
2015,07,20,09,12,18.70
2015,07,20,09,13,18.70
2015,07,20,09,14,18.70
2015,07,20,09,15,18.80
2015,07,20,09,16,18.80
2015,07,20,09,17,18.90
2015,07,20,09,18,18.90
2015,07,20,09,19,19.00
2015,07,20,09,20,19.10
2015,07,20,09,21,19.10
2015,07,20,09,22,19.20
2015,07,20,09,23,19.20
2015,07,20,09,24,19.30
2015,07,20,09,25,19.40
2015,07,20,09,26,19.40
2015,07,20,09,27,19.50
2015,07,20,09,28,19.60
2015,07,20,09,29,19.70
2015,07,20,09,30,19.80
2015,07,20,09,31,19.80
2015,07,20,09,32,19.90
2015,07,20,09,33,20.00
2015,07,20,09,34,20.10
2015,07,20,09,35,20.20
2015,07,20,09,36,20.30
2015,07,20,09,37,20.50
2015,07,20,09,38,20.60
2015,07,20,09,39,20.70
2015,07,20,09,40,20.80
2015,07,20,09,41,20.90
2015,07,20,09,42,21.00
2015,07,20,09,43,21.10
2015,07,20,09,44,21.20
2015,07,20,09,45,21.30
2015,07,20,09,46,21.40
2015,07,20,09,47,21.50
2015,07,20,09,48,21.60
2015,07,20,09,49,21.70
2015,07,20,09,50,21.80
2015,07,20,09,51,21.80
2015,07,20,09,52,21.90
2015,07,20,09,53,21.90
2015,07,20,09,54,22.00
2015,07,20,09,55,22.00
2015,07,20,09,56,22.10
2015,07,20,09,57,22.10
2015,07,20,09,58,22.10
2015,07,20,09,59,22.10
2015,07,20,10,00,22.20
2015,07,20,10,01,22.20
2015,07,20,10,02,22.20
2015,07,20,10,03,22.20
2015,07,20,10,04,22.20
2015,07,20,10,05,22.30
2015,07,20,10,06,22.30
2015,07,20,10,07,22.30
2015,07,20,10,08,22.30
2015,07,20,10,09,22.30
2015,07,20,10,10,22.30
2015,07,20,10,11,22.30
2015,07,20,10,12,22.20
2015,07,20,10,13,22.20
2015,07,20,10,14,22.20
2015,07,20,10,15,22.20
2015,07,20,10,16,22.20
2015,07,20,10,17,22.20
2015,07,20,10,18,22.20
2015,07,20,10,19,22.30
2015,07,20,10,20,22.30
2015,07,20,10,21,22.30
2015,07,20,10,22,22.30
2015,07,20,10,23,22.30
2015,07,20,10,24,22.20
2015,07,20,10,25,22.20
2015,07,20,10,26,22.20
2015,07,20,10,27,22.20
2015,07,20,10,28,22.20
2015,07,20,10,29,22.20
2015,07,20,10,30,22.20
2015,07,20,10,31,22.30
2015,07,20,10,32,22.30
2015,07,20,10,33,22.30
2015,07,20,10,34,22.30
2015,07,20,10,35,22.30
2015,07,20,10,36,22.30
2015,07,20,10,37,22.40
2015,07,20,10,38,22.40
2015,07,20,10,39,22.40
2015,07,20,10,40,22.40
2015,07,20,10,41,22.50
2015,07,20,10,42,22.50
2015,07,20,10,43,22.60
2015,07,20,10,44,22.60
2015,07,20,10,45,22.70
2015,07,20,10,46,22.70
2015,07,20,10,47,22.80
2015,07,20,10,48,22.90
2015,07,20,10,49,22.90
2015,07,20,10,50,23.00
2015,07,20,10,51,23.00
2015,07,20,10,52,23.10
2015,07,20,10,53,23.20
2015,07,20,10,54,23.20
2015,07,20,10,55,23.20
2015,07,20,10,56,23.20
2015,07,20,10,57,23.30
2015,07,20,10,58,23.30
2015,07,20,10,59,23.40
2015,07,20,11,00,23.40
2015,07,20,11,01,23.50
2015,07,20,11,02,23.60
2015,07,20,11,03,23.60
2015,07,20,11,04,23.70
2015,07,20,11,05,23.70
2015,07,20,11,06,23.80
2015,07,20,11,07,23.80
2015,07,20,11,08,23.90
2015,07,20,11,09,23.90
2015,07,20,11,10,24.00
2015,07,20,11,11,24.10
2015,07,20,11,12,24.20
2015,07,20,11,13,24.20
2015,07,20,11,14,24.30
2015,07,20,11,15,24.30
2015,07,20,11,16,24.30
2015,07,20,11,17,24.40
2015,07,20,11,18,24.40
2015,07,20,11,19,24.40
2015,07,20,11,20,24.50
2015,07,20,11,21,24.50
2015,07,20,11,22,24.50
2015,07,20,11,23,24.40
2015,07,20,11,24,24.40
2015,07,20,11,25,24.40
2015,07,20,11,26,24.40
2015,07,20,11,27,24.40
2015,07,20,11,28,24.30
2015,07,20,11,29,24.30
2015,07,20,11,30,24.30
2015,07,20,11,31,24.20
2015,07,20,11,32,24.20
2015,07,20,11,33,24.10
2015,07,20,11,34,24.10
2015,07,20,11,35,24.00
2015,07,20,11,36,24.00
2015,07,20,11,37,24.00
2015,07,20,11,38,24.00
2015,07,20,11,39,24.00
2015,07,20,11,40,24.00
2015,07,20,11,41,24.10
2015,07,20,11,42,24.10
2015,07,20,11,43,24.10
2015,07,20,11,44,24.10
2015,07,20,11,45,24.10
2015,07,20,11,46,24.20
2015,07,20,11,47,24.20
2015,07,20,11,48,24.20
2015,07,20,11,49,24.20
2015,07,20,11,50,24.20
2015,07,20,11,51,24.20
2015,07,20,11,52,24.30
2015,07,20,11,53,24.30
2015,07,20,11,54,24.30
2015,07,20,11,55,24.30
2015,07,20,11,56,24.40
2015,07,20,11,57,24.40
2015,07,20,11,58,24.50
2015,07,20,11,59,24.60
2015,07,20,12,00,24.70
2015,07,20,12,01,24.70
2015,07,20,12,02,24.80
2015,07,20,12,03,24.80
2015,07,20,12,04,24.90
2015,07,20,12,05,24.90
2015,07,20,12,06,25.00
2015,07,20,12,07,25.10
2015,07,20,12,08,25.20
2015,07,20,12,09,25.30
2015,07,20,12,10,25.40
2015,07,20,12,11,25.40
2015,07,20,12,12,25.50
2015,07,20,12,13,25.60
2015,07,20,12,14,25.60
2015,07,20,12,15,25.60
2015,07,20,12,16,25.60
2015,07,20,12,17,25.50
2015,07,20,12,18,25.50
2015,07,20,12,19,25.40
2015,07,20,12,20,25.40
2015,07,20,12,21,25.30
2015,07,20,12,22,25.30
2015,07,20,12,23,25.20
2015,07,20,12,24,25.10
2015,07,20,12,25,25.10
2015,07,20,12,26,25.00
2015,07,20,12,27,25.00
2015,07,20,12,28,25.10
2015,07,20,12,29,25.10
2015,07,20,12,30,25.20
2015,07,20,12,31,25.30
2015,07,20,12,32,25.30
2015,07,20,12,33,25.30
2015,07,20,12,34,25.40
2015,07,20,12,35,25.40
2015,07,20,12,36,25.40
2015,07,20,12,37,25.40
2015,07,20,12,38,25.50
2015,07,20,12,39,25.50
2015,07,20,12,40,25.60
2015,07,20,12,41,25.60
2015,07,20,12,42,25.60
2015,07,20,12,43,25.70
2015,07,20,12,44,25.70
2015,07,20,12,45,25.70
2015,07,20,12,46,25.80
2015,07,20,12,47,25.80
2015,07,20,12,48,25.80
2015,07,20,12,49,25.90
2015,07,20,12,50,25.90
2015,07,20,12,51,25.90
2015,07,20,12,52,25.90
2015,07,20,12,53,25.90
2015,07,20,12,54,25.90
2015,07,20,12,55,25.90
2015,07,20,12,56,25.90
2015,07,20,12,57,26.00
2015,07,20,12,58,26.00
2015,07,20,12,59,26.10
2015,07,20,13,00,26.20
2015,07,20,13,01,26.20
2015,07,20,13,02,26.20
2015,07,20,13,03,26.30
2015,07,20,13,04,26.30
2015,07,20,13,05,26.30
2015,07,20,13,06,26.30
2015,07,20,13,07,26.30
2015,07,20,13,08,26.30
2015,07,20,13,09,26.30
2015,07,20,13,10,26.20
2015,07,20,13,11,26.20
2015,07,20,13,12,26.10
2015,07,20,13,13,26.10
2015,07,20,13,14,26.10
2015,07,20,13,15,26.10
2015,07,20,13,16,26.10
2015,07,20,13,17,26.10
2015,07,20,13,18,26.20
2015,07,20,13,19,26.20
2015,07,20,13,20,26.20
2015,07,20,13,21,26.20
2015,07,20,13,22,26.20
2015,07,20,13,23,26.30
2015,07,20,13,24,26.30
2015,07,20,13,25,26.30
2015,07,20,13,26,26.30
2015,07,20,13,27,26.30
2015,07,20,13,28,26.40
2015,07,20,13,29,26.40
2015,07,20,13,30,26.40
2015,07,20,13,31,26.40
2015,07,20,13,32,26.50
2015,07,20,13,33,26.50
2015,07,20,13,34,26.60
2015,07,20,13,35,26.70
2015,07,20,13,36,26.70
2015,07,20,13,37,26.70
2015,07,20,13,38,26.70
2015,07,20,13,39,26.70
2015,07,20,13,40,26.70
2015,07,20,13,41,26.70
2015,07,20,13,42,26.70
2015,07,20,13,43,26.70
2015,07,20,13,44,26.70
2015,07,20,13,45,26.70
2015,07,20,13,46,26.70
2015,07,20,13,47,26.70
2015,07,20,13,48,26.80
2015,07,20,13,49,26.80
2015,07,20,13,50,26.80
2015,07,20,13,51,26.80
2015,07,20,13,52,26.80
2015,07,20,13,53,26.80
2015,07,20,13,54,26.80
2015,07,20,13,55,26.80
2015,07,20,13,56,26.70
2015,07,20,13,57,26.70
2015,07,20,13,58,26.70
2015,07,20,13,59,26.60
2015,07,20,14,00,26.60
2015,07,20,14,01,26.70
2015,07,20,14,02,26.70
2015,07,20,14,03,26.70
2015,07,20,14,04,26.70
2015,07,20,14,05,26.70
2015,07,20,14,06,26.70
2015,07,20,14,07,26.70
2015,07,20,14,08,26.70
2015,07,20,14,09,26.70
2015,07,20,14,10,26.70
2015,07,20,14,11,26.70
2015,07,20,14,12,26.70
2015,07,20,14,13,26.70
2015,07,20,14,14,26.70
2015,07,20,14,15,26.70
2015,07,20,14,16,26.70
2015,07,20,14,17,26.80
2015,07,20,14,18,26.80
2015,07,20,14,19,26.90
2015,07,20,14,20,26.90
2015,07,20,14,21,26.90
2015,07,20,14,22,26.90
2015,07,20,14,23,26.90
2015,07,20,14,24,27.00
2015,07,20,14,25,27.00
2015,07,20,14,26,27.10
2015,07,20,14,27,27.20
2015,07,20,14,28,27.20
2015,07,20,14,29,27.30
2015,07,20,14,30,27.30
2015,07,20,14,31,27.20
2015,07,20,14,32,27.20
2015,07,20,14,33,27.10
2015,07,20,14,34,27.10
2015,07,20,14,35,26.90
2015,07,20,14,36,26.80
2015,07,20,14,37,26.80
2015,07,20,14,38,26.80
2015,07,20,14,39,26.70
2015,07,20,14,40,26.60
2015,07,20,14,41,26.60
2015,07,20,14,42,26.60
2015,07,20,14,43,26.50
2015,07,20,14,44,26.50
2015,07,20,14,45,26.50
2015,07,20,14,46,26.60
2015,07,20,14,47,26.60
2015,07,20,14,48,26.70
2015,07,20,14,49,26.70
2015,07,20,14,50,26.70
2015,07,20,14,51,26.80
2015,07,20,14,52,26.80
2015,07,20,14,53,26.80
2015,07,20,14,54,26.70
2015,07,20,14,55,26.60
2015,07,20,14,56,26.50
2015,07,20,14,57,26.40
2015,07,20,14,58,26.30
2015,07,20,14,59,26.20
2015,07,20,15,00,26.20
2015,07,20,15,01,26.20
2015,07,20,15,02,26.30
2015,07,20,15,03,26.40
2015,07,20,15,04,26.40
2015,07,20,15,05,26.50
2015,07,20,15,06,26.50
2015,07,20,15,07,26.60
2015,07,20,15,08,26.60
2015,07,20,15,09,26.60
2015,07,20,15,10,26.60
2015,07,20,15,11,26.50
2015,07,20,15,12,26.50
2015,07,20,15,13,26.40
2015,07,20,15,14,26.30
2015,07,20,15,15,26.30
2015,07,20,15,16,26.20
2015,07,20,15,17,26.20
2015,07,20,15,18,26.10
2015,07,20,15,19,26.10
2015,07,20,15,20,26.00
2015,07,20,15,21,25.90
2015,07,20,15,22,25.90
2015,07,20,15,23,25.90
2015,07,20,15,24,25.90
2015,07,20,15,25,26.00
2015,07,20,15,26,26.00
2015,07,20,15,27,26.10
2015,07,20,15,28,26.00
2015,07,20,15,29,26.00
2015,07,20,15,30,25.90
2015,07,20,15,31,25.90
2015,07,20,15,32,25.90
2015,07,20,15,33,25.90
2015,07,20,15,34,26.00
2015,07,20,15,35,26.00
2015,07,20,15,36,26.10
2015,07,20,15,37,26.10
2015,07,20,15,38,26.20
2015,07,20,15,39,26.20
2015,07,20,15,40,26.20
2015,07,20,15,41,26.20
2015,07,20,15,42,26.20
2015,07,20,15,43,26.20
2015,07,20,15,44,26.20
2015,07,20,15,45,26.20
2015,07,20,15,46,26.20
2015,07,20,15,47,26.10
2015,07,20,15,48,26.00
2015,07,20,15,49,25.90
2015,07,20,15,50,25.80
2015,07,20,15,51,25.70
2015,07,20,15,52,25.70
2015,07,20,15,53,25.70
2015,07,20,15,54,25.70
2015,07,20,15,55,25.70
2015,07,20,15,56,25.60
2015,07,20,15,57,25.70
2015,07,20,15,58,25.70
2015,07,20,15,59,25.70
2015,07,20,16,00,25.80
2015,07,20,16,01,25.80
2015,07,20,16,02,25.80
2015,07,20,16,03,25.90
2015,07,20,16,04,25.90
2015,07,20,16,05,25.90
2015,07,20,16,06,25.90
2015,07,20,16,07,25.80
2015,07,20,16,08,25.70
2015,07,20,16,09,25.70
2015,07,20,16,10,25.60
2015,07,20,16,11,25.60
2015,07,20,16,12,25.50
2015,07,20,16,13,25.40
2015,07,20,16,14,25.30
2015,07,20,16,15,25.30
2015,07,20,16,16,25.20
2015,07,20,16,18,25.30
2015,07,20,16,19,25.30
2015,07,20,16,20,25.20
2015,07,20,16,21,25.20
2015,07,20,16,22,25.20
2015,07,20,16,23,25.30
2015,07,20,16,24,25.30
2015,07,20,16,25,25.40
2015,07,20,16,26,25.40
2015,07,20,16,27,25.40
2015,07,20,16,28,25.50
2015,07,20,16,29,25.50
2015,07,20,16,30,25.40
2015,07,20,16,31,25.40
2015,07,20,16,32,25.20
2015,07,20,16,33,25.20
2015,07,20,16,34,25.10
2015,07,20,16,35,25.00
2015,07,20,16,36,24.90
2015,07,20,16,37,24.90
2015,07,20,16,38,24.80
2015,07,20,16,39,24.70
2015,07,20,16,40,24.70
2015,07,20,16,41,24.70
2015,07,20,16,42,24.70
2015,07,20,16,43,24.70
2015,07,20,16,44,24.60
2015,07,20,16,45,24.60
2015,07,20,16,46,24.60
2015,07,20,16,47,24.50
2015,07,20,16,48,24.50
2015,07,20,16,49,24.40
2015,07,20,16,50,24.40
2015,07,20,16,51,24.40
2015,07,20,16,52,24.20
2015,07,20,16,53,24.10
2015,07,20,16,54,24.00
2015,07,20,16,55,23.80
2015,07,20,16,56,23.70
2015,07,20,16,57,23.60
2015,07,20,16,58,23.50
2015,07,20,16,59,23.50
2015,07,20,17,00,23.40
2015,07,20,17,01,23.40
2015,07,20,17,02,23.30
2015,07,20,17,03,23.30
2015,07,20,17,04,23.20
2015,07,20,17,05,23.30
2015,07,20,17,06,23.30
2015,07,20,17,07,23.30
2015,07,20,17,08,23.30
2015,07,20,17,09,23.40
2015,07,20,17,10,23.40
2015,07,20,17,11,23.40
2015,07,20,17,12,23.40
2015,07,20,17,13,23.40
2015,07,20,17,14,23.40
2015,07,20,17,15,23.40
2015,07,20,17,16,23.40
2015,07,20,17,17,23.40
2015,07,20,17,18,23.30
2015,07,20,17,19,23.30
2015,07,20,17,20,23.20